Theta_e
319 318 319 319 319 320 322 322 320 323 321 316 317 319 319 322 323 323 323 324 324 324 323 326 331 336 339 339 338 336 336 336 334 333 337 343 340 339 340 330 323 321 318 316 315 316 317 318 321 322 322 319 315 314 316 319 322 323 325 327 328 329 328 327 328 328 329 329 329 329 329 329 328 325 321 319 319 319 320 322 324 321 317 314 312 312 311 310 310 312 315 317 313 310 310 311 311
318 318 319 319 319 321 323 322 319 319 318 315 317 319 320 322 323 322 322 322 323 322 323 331 335 337 339 339 338 338 337 339 338 340 344 341 340 341 339 331 322 320 318 315 316 316 317 319 321 322 322 320 316 314 317 320 322 324 325 327 328 329 327 327 328 329 329 328 329 329 329 329 326 322 320 319 319 321 324 323 320 314 310 308 308 308 308 308 308 308 310 311 310 310 311 311 312
318 318 319 319 320 321 322 322 319 316 315 314 317 321 321 322 322 321 322 321 322 321 323 330 334 333 337 339 337 338 337 342 342 345 346 342 346 343 337 332 322 320 317 314 316 316 317 318 319 322 322 320 316 314 317 320 322 324 325 327 328 328 327 327 329 329 329 328 328 328 329 328 324 321 322 323 323 324 323 317 311 308 307 307 308 309 309 308 308 308 309 309 309 311 312 313 314
318 318 319 320 320 322 322 322 320 317 315 314 316 321 322 322 322 321 322 322 322 321 322 325 328 329 332 336 336 338 337 343 345 346 348 345 346 340 336 332 322 320 316 314 316 316 317 317 320 321 322 320 317 314 316 320 322 324 325 326 328 328 327 328 329 329 329 328 327 328 328 326 321 320 325 326 325 322 317 311 308 307 308 308 309 308 308 308 308 309 309 310 310 312 314 315 315
317 317 318 319 321 322 322 321 321 318 316 317 317 321 322 321 322 322 322 321 321 321 322 322 325 326 330 336 334 338 340 344 347 346 348 344 341 338 336 329 323 321 315 314 315 319 319 316 319 321 322 321 318 315 315 319 322 324 325 326 328 328 327 328 329 329 329 328 327 328 327 324 320 320 325 326 324 320 312 308 308 308 308 309 309 309 310 310 310 310 310 311 312 315 316 317 316
317 317 318 319 321 320 321 319 318 318 319 321 320 322 322 322 322 322 322 322 322 321 321 321 324 324 330 334 331 337 337 341 348 347 346 343 340 338 335 327 325 321 316 315 314 324 323 316 320 321 322 321 319 316 315 319 322 324 325 327 328 328 328 328 329 330 329 328 328 327 325 322 320 319 322 325 323 317 309 308 309 308 309 310 310 311 312 312 312 312 311 312 314 317 319 318 318
316 318 319 320 321 320 320 317 317 319 321 323 321 322 322 323 322 321 322 321 322 322 321 322 323 323 326 327 331 336 328 332 345 343 341 341 340 339 335 327 327 323 318 314 315 328 326 315 319 320 322 321 320 318 315 317 322 325 325 327 329 329 328 329 330 330 330 328 328 327 324 321 319 318 320 324 321 313 308 308 308 308 310 312 312 313 314 314 314 314 315 316 318 320 320 320 321
315 318 320 320 321 321 319 318 319 320 321 323 322 322 322 323 322 322 322 322 322 322 322 321 322 322 324 323 330 335 323 326 334 333 336 339 340 340 336 330 330 325 319 313 317 329 323 314 319 319 321 321 320 319 316 316 320 325 325 327 329 330 330 329 330 330 330 328 328 326 323 319 317 317 319 323 319 311 309 309 309 308 309 313 315 315 316 316 317 318 318 319 321 321 321 323 325
316 318 319 319 320 320 318 318 319 321 322 322 322 322 322 322 322 322 321 322 321 321 322 321 322 321 323 322 328 340 331 324 327 329 334 337 340 340 337 333 332 326 320 314 318 326 318 315 318 319 321 321 321 319 317 316 318 324 326 327 329 330 330 329 330 330 330 329 328 325 322 319 316 316 318 321 319 313 310 309 309 309 309 312 315 317 318 318 319 320 321 321 321 321 322 324 325
317 318 319 320 319 318 316 318 319 320 322 321 322 322 322 321 322 322 321 322 321 322 322 320 322 320 324 320 328 343 333 322 325 328 330 334 340 341 339 335 332 327 319 314 318 323 316 315 317 318 321 321 321 320 319 317 316 321 325 326 328 330 330 329 330 330 329 329 327 324 322 319 317 316 316 319 319 316 312 310 309 309 309 310 313 316 319 320 320 321 321 322 321 321 321 322 323
318 318 319 319 317 316 315 317 319 320 321 321 322 322 321 321 321 322 321 322 321 322 321 322 322 321 323 320 333 339 326 321 328 329 329 334 340 341 340 337 332 326 319 315 318 323 317 315 317 319 321 321 322 321 320 318 316 318 322 325 327 329 329 329 330 330 330 329 327 324 321 318 317 315 315 317 319 317 313 311 310 309 310 309 310 313 316 319 320 321 321 321 321 320 321 321 321
318 319 318 318 316 317 317 318 319 321 321 320 321 321 321 321 321 321 321 322 322 322 321 322 320 322 322 321 339 336 324 326 328 330 331 336 342 342 340 337 331 324 319 315 317 325 319 314 317 319 321 322 322 322 321 320 317 316 319 324 326 328 328 329 330 331 330 329 327 323 320 318 315 314 313 314 317 318 314 311 310 310 310 310 310 310 312 315 317 319 319 320 319 320 320 320 321
317 319 318 317 318 318 318 318 319 321 321 321 321 321 321 321 321 321 322 322 322 323 321 322 321 322 322 323 338 335 328 327 327 330 332 339 343 343 340 334 329 322 318 315 317 323 320 315 316 319 322 323 323 324 323 321 320 317 317 321 325 327 328 329 331 331 331 329 326 322 319 315 312 312 312 311 314 317 316 313 310 310 310 310 310 310 310 312 314 316 318 318 319 320 321 321 322
317 319 319 318 319 319 318 318 319 319 319 321 321 321 321 321 321 320 321 321 321 322 321 321 320 322 323 323 337 342 336 327 328 330 335 343 344 344 340 331 327 322 317 315 318 320 317 316 317 319 320 323 326 325 326 324 322 320 316 318 324 327 328 330 331 331 331 328 325 321 316 311 309 309 310 310 311 314 316 315 312 310 310 310 310 310 310 311 312 314 316 317 318 320 321 322 323
316 318 318 318 318 318 318 318 319 318 318 321 322 321 321 320 321 321 321 320 321 322 321 321 321 322 323 322 337 348 338 329 332 331 337 344 344 344 340 329 325 321 317 316 320 322 318 319 321 323 321 324 328 327 328 328 324 322 317 317 324 328 329 330 331 332 330 327 324 318 312 309 308 308 309 309 310 311 313 315 314 311 310 311 311 310 311 311 311 312 314 315 317 318 319 320 321
315 317 317 317 316 316 317 319 319 318 319 321 321 321 320 321 320 321 321 320 322 323 322 322 323 322 322 331 343 344 335 331 334 333 340 344 344 343 338 329 324 321 320 317 320 326 328 326 325 329 330 330 333 331 331 333 329 323 318 317 326 330 330 331 332 332 330 327 322 315 310 308 308 308 309 309 310 310 311 313 314 312 311 310 311 311 311 311 311 311 312 313 315 316 317 318 318
315 316 316 316 315 316 317 319 318 317 320 321 322 321 320 321 320 320 320 319 320 322 322 322 325 327 329 337 340 336 333 333 333 335 342 344 344 342 337 330 326 325 323 318 320 330 334 332 330 334 337 336 337 336 335 338 333 324 320 322 329 331 331 332 333 332 330 327 320 313 310 308 308 308 309 309 309 310 310 311 312 313 312 311 311 311 311 311 311 311 311 312 312 313 314 315 315
314 315 315 315 316 317 318 319 319 319 319 320 321 321 320 320 320 321 319 319 320 320 322 322 327 332 330 328 331 331 332 334 333 336 342 344 344 342 339 333 330 331 325 319 322 331 335 332 334 337 339 338 338 338 337 339 334 327 328 330 332 334 334 334 334 334 332 328 319 313 311 308 309 309 309 309 309 309 310 310 311 312 313 313 312 312 312 311 312 312 311 312 312 312 312 315 318
314 315 314 315 317 318 319 319 320 320 320 320 321 321 320 319 320 321 319 320 320 320 321 321 325 333 332 323 326 331 331 333 334 337 342 344 344 343 342 338 335 334 326 324 323 330 334 331 335 339 339 339 338 338 337 338 335 331 334 334 333 335 336 336 336 336 335 332 322 313 311 308 309 309 309 309 309 309 309 310 310 312 313 313 314 314 313 312 312 312 313 313 312 312 315 321 324
314 315 314 316 318 318 319 320 320 320 319 321 321 320 320 319 320 320 319 320 320 320 320 322 321 329 338 329 328 333 331 334 338 340 342 344 345 343 342 340 338 336 330 330 326 329 335 330 335 340 339 338 338 338 337 338 334 332 335 334 334 336 336 336 337 336 336 334 325 314 310 308 309 309 309 309 309 309 309 309 309 310 311 313 315 315 315 313 312 313 313 313 315 319 326 329 328
314 315 314 316 318 317 318 319 319 319 319 320 320 320 320 319 319 319 320 319 319 321 320 322 321 322 338 335 328 332 331 334 340 343 345 345 346 344 343 342 340 338 335 335 331 330 332 332 338 341 339 339 339 338 337 338 334 332 336 335 335 336 336 337 337 336 336 333 323 313 310 308 309 309 309 309 309 310 310 310 310 310 310 311 313 315 316 315 315 319 319 319 324 329 331 331 328
314 314 315 316 317 317 317 318 317 318 318 318 319 319 319 319 319 319 319 319 318 321 320 319 321 318 334 338 327 329 333 334 339 342 344 346 346 346 344 343 342 342 339 338 336 331 330 336 341 340 339 339 338 338 338 338 335 333 336 336 337 337 336 338 337 336 336 330 319 313 310 308 309 310 310 311 310 310 310 310 310 309 310 309 310 316 316 314 321 326 328 328 330 332 331 330 329
313 314 316 316 316 316 316 316 316 316 317 317 318 318 319 318 318 318 318 319 318 319 320 318 320 318 326 337 328 325 332 333 335 337 340 343 346 346 345 344 343 343 342 340 339 336 335 340 341 340 340 339 337 338 338 338 336 334 336 336 337 338 337 338 337 336 335 328 317 313 310 308 310 311 313 313 311 313 315 316 317 313 315 315 313 321 319 317 327 330 331 332 333 334 334 334 334
313 314 315 316 315 316 315 316 315 315 316 317 317 317 318 317 317 318 317 318 319 317 319 317 319 321 323 334 332 325 328 332 334 335 338 343 346 346 346 344 343 343 343 341 341 338 339 341 341 341 340 338 337 337 337 338 336 335 336 336 336 337 336 337 337 335 334 326 317 312 310 310 313 317 320 320 320 323 322 321 323 321 325 327 321 328 330 328 333 334 335 336 337 337 337 337 337
313 313 314 315 315 315 315 315 315 315 315 316 316 317 317 317 316 317 317 317 318 317 317 317 320 324 324 331 335 328 326 334 337 338 341 344 345 345 345 344 343 343 343 342 342 339 340 341 340 341 340 338 337 336 337 338 336 335 336 336 336 336 336 336 336 335 333 326 316 312 312 315 321 326 327 327 327 329 323 318 323 324 328 330 328 333 336 336 338 338 338 339 339 338 338 338 336
313 313 314 315 315 314 314 314 315 314 315 315 315 316 316 316 316 316 317 316 317 317 316 318 320 324 325 329 336 331 326 331 335 339 342 344 345 344 344 344 343 343 343 343 343 341 341 341 340 340 339 338 337 337 337 337 336 334 335 335 335 336 335 336 336 336 334 326 321 319 319 321 327 330 329 329 329 329 324 321 325 326 327 330 332 336 336 337 340 340 339 339 339 338 338 336 334
313 314 314 315 315 314 314 314 315 315 315 315 315 315 316 316 316 315 317 316 316 317 316 318 319 321 323 327 336 336 329 331 334 339 342 343 343 344 344 343 343 343 343 343 343 341 341 340 340 339 339 338 337 336 335 336 336 334 335 335 336 336 335 336 335 335 334 329 328 329 328 329 332 331 330 331 331 330 326 325 329 330 333 333 333 336 335 336 338 338 338 337 336 335 335 334 332
312 313 314 314 314 314 314 315 314 315 314 315 315 315 316 315 316 316 316 317 316 316 316 317 317 319 322 326 337 339 333 334 338 341 342 343 343 343 343 343 343 343 343 343 342 341 340 340 339 339 338 336 336 337 335 336 336 334 334 334 336 336 335 335 334 335 335 332 331 332 332 332 333 331 329 330 331 330 327 328 332 333 337 335 333 335 334 335 335 335 335 333 332 331 331 331 330
312 313 312 312 313 313 314 315 314 315 314 315 315 313 314 315 315 316 316 318 319 318 317 318 319 319 320 326 338 341 337 337 339 341 343 343 343 342 343 344 343 343 343 342 342 340 339 340 338 338 337 334 334 336 336 336 335 333 333 334 336 335 335 334 333 334 333 332 332 332 333 331 330 329 328 328 328 329 329 331 334 335 337 335 333 333 334 334 334 334 334 332 330 329 331 330 330
311 312 312 312 312 312 313 315 314 315 314 315 314 312 313 315 316 317 316 317 319 320 319 320 321 321 322 329 337 341 341 339 338 341 343 342 342 342 343 344 343 343 342 341 341 340 340 340 339 337 336 332 331 333 336 337 335 333 333 334 335 334 335 333 334 335 329 329 331 330 332 330 327 329 329 328 328 330 331 333 335 336 336 333 331 332 333 334 333 334 334 334 331 330 332 331 331
311 311 311 312 312 312 313 314 314 314 314 315 314 311 313 315 316 317 317 316 317 318 319 319 320 321 323 329 336 340 344 342 340 342 343 342 342 342 343 343 343 343 342 341 341 340 341 341 340 338 337 336 335 334 336 335 333 332 333 333 334 333 334 332 334 334 326 326 330 329 332 331 329 331 329 328 329 331 332 334 336 335 333 330 330 332 332 333 333 333 332 332 332 332 333 332 332
311 311 311 311 311 312 314 314 313 314 314 316 314 311 313 315 317 317 317 317 317 317 319 319 319 320 321 326 334 338 344 345 343 343 343 342 342 342 342 343 343 343 342 341 341 342 343 341 340 338 337 337 335 334 335 333 331 331 331 332 332 332 332 333 334 331 326 327 330 329 330 331 331 330 328 328 329 330 332 335 336 335 331 330 332 332 332 333 333 333 331 329 329 332 334 333 334
311 311 311 311 311 311 313 313 314 314 313 315 314 312 314 315 317 317 317 317 317 317 318 320 319 321 321 324 335 340 344 347 344 343 343 343 342 342 343 343 343 343 342 341 342 343 343 341 340 338 337 336 333 333 335 334 333 333 332 332 332 331 332 335 333 328 327 330 331 330 330 331 330 328 327 327 328 330 333 336 337 334 332 332 334 333 333 333 333 333 332 330 327 329 334 333 333
311 311 311 311 311 311 312 313 314 314 312 313 313 313 314 315 317 318 317 317 317 317 318 319 320 322 323 325 336 342 344 348 346 344 344 343 343 343 343 342 343 342 342 342 344 344 343 342 341 338 337 336 333 334 335 334 333 334 333 332 331 331 331 332 330 326 329 331 330 331 332 331 328 326 328 327 328 330 333 336 336 335 334 334 334 333 333 333 332 332 332 331 328 328 331 330 328
312 311 311 311 311 311 312 312 313 313 312 313 313 313 313 314 316 317 318 317 317 318 318 319 321 323 325 330 338 342 344 348 348 346 345 343 343 343 342 342 342 342 341 342 344 344 343 342 342 338 337 335 333 333 334 333 332 333 333 331 330 330 330 329 326 326 330 330 330 332 332 331 328 327 328 327 327 330 335 337 336 335 334 334 333 333 334 333 332 332 331 332 331 330 329 327 325
312 312 311 311 311 312 312 313 313 313 313 313 313 313 314 314 315 316 317 317 317 318 318 320 323 324 326 333 339 340 343 347 349 348 345 343 343 342 341 342 342 342 341 342 344 344 344 343 341 338 337 335 333 333 333 333 332 332 332 331 330 330 329 329 327 327 329 331 331 332 332 331 329 327 327 329 329 333 337 336 334 334 334 334 334 333 335 335 333 332 332 332 332 333 331 327 325
312 313 312 311 311 311 312 313 313 313 313 313 313 313 314 314 314 315 317 317 317 318 319 319 322 324 326 333 337 337 340 348 350 348 344 343 343 342 341 341 341 341 342 343 344 345 344 342 340 338 336 335 334 334 334 333 332 332 331 331 332 330 330 331 330 329 332 332 331 331 331 331 331 328 328 331 333 335 337 334 332 334 334 334 333 333 333 334 333 332 333 333 332 331 330 326 322
312 313 312 311 311 311 313 313 313 313 312 313 314 313 314 314 315 316 316 316 317 318 319 321 322 324 326 332 335 334 339 348 350 347 344 344 343 341 341 340 341 342 343 344 345 345 343 341 339 338 337 335 335 335 334 332 332 332 331 331 332 331 331 332 331 331 332 331 330 331 331 331 331 329 329 333 335 336 335 332 332 335 335 334 333 333 332 332 333 333 333 334 333 330 330 327 321
311 312 311 311 311 312 312 313 313 313 312 313 314 313 313 315 315 316 316 316 317 317 318 320 322 324 326 331 334 333 338 348 349 345 344 343 342 340 340 341 341 342 343 344 345 344 342 340 338 337 337 336 335 334 333 333 332 332 332 331 332 332 331 331 330 331 331 330 331 332 331 332 332 330 330 332 333 334 333 331 333 336 335 333 333 332 331 331 333 333 333 334 333 331 333 331 323
311 311 311 311 311 311 311 312 313 312 312 312 313 313 314 315 315 315 316 317 317 317 316 318 320 322 326 329 332 334 338 348 348 345 343 342 342 341 340 340 341 342 343 343 343 342 341 340 337 337 338 337 335 333 332 332 331 330 329 328 328 330 330 329 330 331 331 331 331 331 331 332 333 333 333 332 332 332 331 331 333 335 333 332 332 331 331 332 333 334 333 333 331 331 333 332 327
310 311 311 311 311 312 311 312 312 312 312 312 312 312 313 314 315 315 316 317 316 317 317 317 319 321 324 326 330 333 339 346 348 347 344 342 342 341 341 341 341 342 343 343 343 341 340 338 337 339 338 335 335 333 329 329 328 326 326 327 328 329 329 330 331 332 332 333 332 331 332 333 334 334 335 334 332 330 330 332 334 334 332 332 332 332 333 333 333 334 333 333 331 330 331 332 330
310 311 311 312 312 312 312 312 312 311 311 312 312 311 312 314 314 315 316 316 316 317 319 320 321 321 324 325 326 331 339 344 347 348 344 341 341 342 341 342 341 342 342 343 342 341 339 338 338 339 338 334 334 333 331 329 327 326 328 330 330 329 329 331 332 333 333 334 333 331 331 332 334 334 334 333 331 330 332 333 333 332 331 331 331 332 332 332 333 333 332 332 332 331 330 331 330
310 311 311 312 312 311 311 312 312 311 311 313 312 311 311 313 314 315 316 316 316 317 319 320 321 323 324 325 326 331 340 344 346 348 346 342 340 341 342 342 342 342 342 342 342 341 341 341 338 338 337 334 333 333 333 332 332 331 329 328 327 326 328 332 333 334 334 334 333 331 331 332 334 334 334 333 332 333 333 332 331 331 331 331 330 330 331 332 333 333 332 332 331 330 329 329 328
311 311 311 311 311 311 312 311 311 311 312 313 313 311 311 312 314 317 316 316 317 317 319 320 320 322 324 325 328 333 339 342 345 347 346 343 340 340 341 341 342 342 342 342 341 341 342 342 339 337 337 335 334 334 334 334 334 333 329 326 325 325 328 332 334 334 334 334 333 331 331 332 334 335 335 334 334 335 334 332 331 332 331 330 330 330 331 333 334 332 331 330 329 328 326 326 326
311 311 311 310 311 311 312 311 311 311 312 312 312 312 311 311 315 319 317 316 317 318 320 320 320 322 324 327 330 334 338 341 343 344 344 344 340 339 340 340 341 341 341 341 340 340 342 342 339 338 336 334 334 335 336 336 335 332 330 329 329 328 330 332 334 334 334 334 333 332 332 333 335 336 336 335 336 336 334 334 333 333 332 330 330 331 332 332 331 329 327 326 326 324 320 321 321
311 311 311 310 311 311 312 311 311 311 312 312 312 312 311 311 314 318 318 317 316 318 321 321 321 323 324 328 331 334 339 341 343 343 344 343 339 338 339 339 340 341 340 341 340 339 341 342 340 338 337 335 335 335 337 337 335 332 330 330 330 330 332 333 333 335 335 334 334 333 332 334 335 335 336 336 335 335 334 334 333 332 332 331 331 331 330 329 326 324 323 322 320 317 314 314 314
310 310 310 310 311 311 312 312 311 312 313 313 312 311 311 311 312 316 319 318 316 319 322 321 322 324 325 328 330 333 338 342 343 342 344 343 339 338 340 339 340 340 340 341 340 338 340 342 341 339 337 336 335 336 337 337 336 334 331 330 331 332 334 334 334 335 335 334 333 332 332 333 334 334 335 334 334 333 333 333 332 331 331 331 330 329 328 326 323 320 317 315 314 313 312 312 312
310 310 310 311 311 311 312 312 312 313 314 313 311 312 312 311 312 315 319 320 318 319 321 320 322 323 325 328 330 333 338 340 342 342 344 343 340 339 339 339 339 339 339 341 339 337 338 341 341 339 338 337 337 337 337 337 337 336 334 332 333 334 335 335 334 334 333 333 333 332 332 333 333 333 334 333 333 332 332 332 331 330 330 330 328 326 324 323 321 317 314 312 313 313 312 312 312
309 310 310 311 312 312 313 313 313 313 313 312 312 312 312 311 313 316 318 319 319 319 320 320 322 323 325 329 331 334 337 339 340 342 343 343 340 338 339 338 338 338 338 340 338 336 337 341 341 339 338 338 338 337 337 337 337 336 334 333 333 334 334 333 332 333 333 333 332 332 333 333 333 334 333 332 332 331 331 331 330 330 329 328 325 322 320 319 317 314 312 313 312 312 312 311 311
310 309 310 312 312 313 313 313 313 313 312 312 312 312 312 312 313 316 317 318 320 320 319 320 321 322 325 329 332 334 338 340 340 341 342 341 340 338 338 338 338 337 337 338 337 335 337 340 340 338 337 338 338 337 336 336 336 335 333 333 334 334 333 331 331 332 332 333 333 333 332 332 333 333 332 331 331 331 330 330 330 329 328 325 322 318 316 317 316 313 312 313 312 311 311 310 310
310 309 310 311 312 313 313 313 313 313 312 312 312 313 312 311 314 317 317 317 320 320 319 321 321 321 323 326 330 333 338 340 340 340 341 341 340 339 338 338 337 337 336 337 336 335 337 340 339 338 337 337 337 336 335 334 335 333 331 332 334 334 332 332 332 332 332 333 333 333 332 332 332 331 331 331 330 330 330 329 329 328 326 323 318 314 314 315 314 312 312 312 311 310 309 308 308
310 310 310 311 312 313 312 313 313 313 313 313 312 312 313 314 316 318 317 317 317 319 320 323 325 324 326 329 331 334 337 339 339 340 340 340 340 339 338 338 337 336 336 336 336 335 337 339 338 337 337 337 336 336 334 334 334 333 333 334 334 333 332 333 333 332 331 332 333 333 333 333 332 331 331 331 330 330 329 328 329 327 323 320 316 314 315 314 312 312 311 311 310 309 308 307 307
311 310 310 311 312 312 311 313 313 312 313 314 312 312 313 314 316 316 317 317 317 318 320 322 324 324 328 331 333 336 337 338 339 339 339 339 340 339 338 338 337 336 336 336 335 336 337 338 338 337 337 336 336 336 335 334 333 334 335 335 334 333 333 333 333 331 330 331 332 333 333 332 331 331 330 330 330 330 328 329 329 325 320 317 315 315 315 312 312 312 310 310 309 308 307 306 306
311 310 311 311 311 312 312 312 312 312 313 314 313 313 312 311 314 317 318 317 317 318 318 321 322 324 326 328 331 334 337 338 339 338 338 338 339 338 337 337 337 336 336 336 335 336 337 338 338 337 337 337 336 335 335 334 334 335 335 335 333 333 334 333 332 331 330 332 333 333 332 332 331 330 330 330 329 329 328 328 327 323 318 317 316 316 314 311 311 310 309 309 308 307 307 306 305
312 311 312 312 311 311 312 312 312 312 312 313 313 313 312 310 314 318 318 318 318 318 318 319 322 325 327 327 330 334 337 339 339 338 338 338 338 337 337 337 337 337 336 336 336 336 337 338 338 337 337 337 336 335 335 334 334 335 335 333 333 334 334 332 331 330 331 333 334 332 332 331 331 330 330 329 329 328 327 326 324 320 318 317 316 315 313 311 310 309 308 308 307 307 306 305 303
312 312 311 311 311 312 312 313 313 312 311 312 312 313 312 312 315 318 319 320 320 320 321 322 323 326 328 328 333 338 339 339 339 338 338 338 337 337 336 336 336 336 336 336 336 337 338 338 337 336 337 337 336 336 336 335 334 335 334 333 334 334 333 332 331 331 332 333 333 332 331 331 330 330 330 328 328 327 326 324 321 318 318 317 316 315 314 310 309 308 307 308 308 306 304 302 300
311 311 310 311 311 312 312 312 312 312 311 311 312 313 313 314 316 317 318 320 321 322 325 326 326 326 326 329 336 339 339 339 339 338 338 337 336 336 336 336 336 336 336 336 337 337 338 337 337 337 337 336 336 337 336 335 335 335 334 333 334 333 332 332 331 332 333 333 332 331 331 331 330 330 329 327 327 327 326 323 319 317 317 317 315 315 313 309 307 307 307 308 306 304 302 300 299
311 311 311 311 311 311 313 312 312 312 311 312 312 312 313 319 321 318 317 319 320 323 324 325 329 330 331 335 338 339 339 338 338 337 337 336 336 336 336 336 336 336 337 337 337 337 337 337 337 337 337 336 336 337 336 335 335 335 334 333 333 333 332 332 332 333 334 333 331 331 330 331 330 329 328 327 327 327 325 321 318 316 316 316 315 313 309 307 307 307 308 307 304 301 299 298 298
Wind_Speed
5 7 8 8 11 12 7 7 7 3 4 5 2 3 4 4 1 4 7 5 3 9 10 6 2 2 1 3 2 2 3 4 7 4 1 1 7 5 6 17 28 29 27 25 24 23 21 21 22 21 21 20 20 19 18 17 16 15 15 15 15 14 13 13 12 11 11 11 10 9 9 8 8 7 6 6 8 9 9 9 8 7 7 7 6 5 5 5 6 6 6 7 9 12 15 17 19
5 6 7 8 9 8 5 6 7 3 5 5 3 2 6 4 2 6 8 8 7 9 8 7 4 3 1 3 2 5 3 3 6 4 0 3 7 2 8 18 28 29 27 26 24 24 23 22 22 22 21 21 21 20 20 18 17 16 16 16 15 15 14 13 13 12 11 11 10 10 9 8 7 7 7 9 10 10 9 8 7 7 7 8 7 7 7 8 9 9 10 11 14 16 17 19 19
6 6 6 8 6 6 6 5 6 5 5 6 5 5 3 4 4 7 7 9 9 8 6 5 5 3 2 3 2 5 1 5 5 5 3 3 2 3 10 19 28 29 28 27 25 24 24 23 23 22 21 21 22 22 21 19 18 17 16 16 16 15 14 14 13 12 12 11 10 10 9 8 7 8 9 10 10 9 8 8 8 8 9 9 10 11 11 11 12 13 14 16 18 18 19 19 19
7 6 4 7 7 7 6 5 5 6 6 6 4 6 4 3 4 5 7 8 9 7 7 5 2 5 4 2 2 4 2 4 4 5 4 2 0 6 13 22 29 30 28 27 25 25 25 25 23 23 22 21 22 22 22 20 19 17 17 17 16 15 14 14 13 12 12 11 10 10 9 8 8 9 10 9 8 8 8 9 9 9 10 11 13 14 15 15 15 16 18 19 19 19 19 18 18
8 7 4 5 7 5 3 4 4 7 7 5 4 5 4 3 3 4 7 7 8 7 8 8 3 5 2 2 5 2 2 2 3 4 2 1 2 7 15 23 29 30 28 27 25 24 24 25 24 23 22 21 21 22 22 21 20 18 17 17 16 15 14 14 13 13 12 11 11 10 9 8 9 9 9 9 8 9 9 10 10 10 11 12 14 15 17 17 18 19 20 20 19 19 18 17 16
6 6 5 6 7 4 4 6 6 8 8 7 5 2 3 3 3 4 6 6 6 5 7 7 6 6 1 3 4 3 2 3 3 4 1 1 1 8 17 24 28 29 29 28 27 23 22 26 24 23 22 21 21 21 22 21 20 19 18 17 16 15 14 14 13 13 12 11 11 10 9 9 9 9 9 9 9 10 10 10 10 11 12 13 15 16 16 17 18 18 19 18 18 18 17 16 15
4 6 6 6 6 4 8 9 8 8 8 8 6 4 2 2 2 4 5 5 4 3 4 6 8 8 2 3 2 2 4 3 2 2 2 3 2 9 19 23 24 28 30 29 27 21 21 26 24 24 23 22 21 20 21 22 21 19 18 17 16 15 14 14 14 13 12 11 11 10 9 9 10 10 10 10 10 10 10 10 11 11 12 13 14 15 15 16 16 17 17 17 17 16 15 15 15
6 8 6 6 6 5 8 9 10 9 7 5 5 7 5 3 2 4 5 4 5 4 6 6 7 7 2 5 2 2 9 7 3 6 4 3 2 10 21 22 21 28 31 30 27 21 22 26 24 24 23 22 21 20 21 21 21 19 18 16 15 15 14 14 14 14 13 11 11 10 9 9 10 10 10 10 10 11 10 9 10 11 11 12 13 14 14 14 14 14 15 15 15 14 14 14 13
7 9 6 6 8 7 8 10 10 11 10 7 6 7 6 6 5 6 6 5 6 6 7 7 8 8 5 7 3 3 8 9 8 7 5 4 3 11 21 22 21 28 32 31 27 23 24 25 24 24 23 22 21 20 20 20 21 19 18 17 16 15 14 14 14 14 12 11 10 9 9 8 9 10 10 11 11 11 10 9 9 10 11 12 12 12 12 12 12 12 12 13 13 13 13 13 12
9 10 8 6 8 10 10 10 10 11 13 11 12 8 6 9 7 7 8 7 6 6 7 7 8 8 7 10 2 3 7 11 10 8 7 5 4 12 21 22 23 29 32 31 27 24 24 25 24 24 24 23 21 20 19 20 21 20 19 17 16 15 15 14 14 13 12 10 9 9 8 8 9 10 11 11 11 12 11 9 9 9 10 11 11 11 11 10 10 10 10 10 11 11 10 10 10
10 10 9 8 9 11 10 10 11 11 11 12 14 10 8 10 9 8 10 9 7 7 6 4 7 6 8 10 1 2 9 11 9 7 8 6 6 14 21 22 26 30 31 31 27 23 24 25 24 24 23 22 21 21 20 20 20 20 20 18 17 15 14 14 13 12 11 10 9 8 7 7 9 10 11 11 11 12 12 11 9 9 9 10 10 10 10 9 9 8 8 8 8 8 6 6 6
11 9 8 9 10 10 11 12 13 12 12 11 12 12 10 11 10 9 11 11 8 8 7 4 6 6 9 8 1 3 8 9 8 8 8 6 8 16 21 23 27 30 29 29 26 22 23 24 24 24 23 22 22 21 20 19 20 20 20 19 17 15 14 13 12 11 10 9 8 7 7 8 9 10 11 11 11 12 12 12 10 9 9 9 9 9 9 9 8 7 7 7 6 6 5 3 3
13 10 8 9 11 11 13 13 13 13 13 11 10 11 11 11 11 11 13 12 10 11 7 4 5 6 10 8 1 3 7 8 8 8 8 6 9 16 21 24 27 28 27 26 24 21 22 23 24 24 23 22 22 21 20 19 19 19 19 19 17 15 13 12 12 11 10 9 8 7 7 8 9 10 11 10 11 12 12 12 11 10 9 9 9 9 9 8 8 7 7 6 6 5 4 3 2
15 15 11 9 11 13 14 13 13 14 11 10 10 11 11 11 12 14 14 12 13 11 4 2 6 7 9 9 3 4 2 5 6 7 6 7 9 13 20 25 27 27 26 25 23 20 20 22 23 23 24 23 23 22 20 19 18 18 18 18 17 15 13 12 11 10 10 9 8 8 8 9 9 10 11 10 10 11 12 13 12 11 10 9 9 8 8 8 8 8 7 6 6 5 5 4 3
17 17 11 9 12 13 14 13 15 16 10 11 12 11 12 13 14 15 14 13 12 5 2 4 6 6 6 6 1 7 3 4 5 6 6 9 11 12 18 27 28 27 26 24 23 20 19 21 23 22 23 25 24 23 21 18 18 17 17 17 16 14 13 12 11 10 10 9 8 8 9 9 9 10 10 10 10 10 11 12 12 12 11 10 9 9 8 8 7 8 8 7 7 6 6 5 5
17 14 8 10 14 14 14 13 16 17 11 11 12 11 12 13 15 15 13 12 10 4 6 8 8 9 10 8 3 3 7 7 6 7 7 10 12 13 20 27 27 26 26 25 23 20 19 21 23 20 19 22 21 21 19 17 17 16 16 16 16 14 13 12 11 11 10 9 8 8 9 9 9 9 9 9 9 9 9 10 12 12 11 10 10 9 8 8 7 7 7 7 8 7 7 7 7
16 13 10 12 15 15 14 14 15 14 12 13 12 12 12 12 14 15 10 11 13 9 10 10 8 11 11 8 5 9 12 8 8 7 9 12 13 15 21 27 26 26 27 26 24 21 20 21 21 17 16 18 18 17 16 15 17 17 15 16 15 14 12 12 12 12 10 9 9 9 9 9 9 9 8 8 8 8 9 9 10 11 11 10 10 9 8 8 7 6 7 7 7 8 8 8 8
14 10 12 14 14 15 15 16 15 13 14 16 14 13 12 13 14 14 10 12 15 13 12 11 10 10 13 15 12 14 13 8 7 7 11 13 15 18 21 25 25 25 27 27 25 22 21 21 20 16 15 17 17 15 14 15 17 16 15 15 14 12 12 12 12 11 10 9 9 9 10 11 10 9 9 8 8 8 9 9 9 10 10 10 10 9 9 8 7 7 7 7 7 7 7 6 7
15 9 11 14 14 16 18 20 19 17 17 18 19 17 13 13 15 14 12 13 15 13 13 13 13 12 14 17 14 14 14 8 7 9 12 15 18 21 21 24 25 25 27 27 26 24 21 22 20 16 16 17 17 15 14 15 16 16 15 16 14 13 13 11 11 10 9 8 9 10 11 11 10 9 9 8 8 7 7 8 8 9 9 10 9 9 9 8 8 8 7 7 7 6 5 4 5
18 14 11 14 16 17 21 24 22 21 20 20 22 21 16 15 16 16 13 15 16 14 13 13 15 14 12 14 14 14 13 9 9 11 14 16 19 22 23 25 25 25 27 26 27 23 19 21 19 15 16 17 16 14 14 15 16 16 14 15 14 12 12 11 11 10 8 8 9 11 12 11 10 9 9 8 7 7 6 6 6 7 7 8 8 8 8 8 8 7 7 7 6 4 3 4 4
15 16 13 14 15 17 21 22 21 20 19 20 23 23 19 15 16 17 15 14 14 15 16 15 15 13 12 13 14 14 13 10 12 13 15 18 19 21 23 24 23 24 26 25 26 24 21 20 16 14 16 16 16 14 13 14 16 17 15 15 14 13 13 12 12 11 10 9 9 12 12 11 11 10 9 8 7 6 6 5 5 5 6 6 7 7 7 7 6 6 6 5 4 3 4 5 5
12 17 18 18 16 14 16 17 17 18 17 20 23 23 19 14 16 18 18 15 12 14 16 16 16 12 9 12 14 14 14 12 13 16 17 19 21 21 22 21 20 20 22 23 23 25 24 18 14 15 15 16 16 14 13 15 16 17 16 16 15 14 14 13 13 12 10 10 11 12 12 12 11 11 9 8 8 7 6 5 5 5 5 6 6 5 6 5 5 4 4 4 3 4 4 5 5
12 14 19 21 18 13 13 15 16 18 19 20 21 23 20 15 15 17 20 19 17 17 14 10 9 9 8 10 13 14 15 15 15 17 18 20 22 22 21 20 20 17 18 21 20 22 22 15 14 15 14 16 16 15 14 15 16 16 16 17 16 15 16 14 13 12 9 11 13 13 13 12 12 11 9 8 8 7 6 6 6 6 6 5 5 5 4 4 4 4 3 3 3 3 4 4 5
16 13 16 19 17 16 14 13 14 17 21 22 21 22 18 15 14 14 18 20 19 17 11 7 6 8 10 11 13 15 15 16 15 16 18 20 21 22 21 19 20 16 17 20 17 21 20 15 15 14 14 16 16 16 15 14 16 16 16 17 16 16 17 15 13 11 10 12 14 14 14 13 11 9 7 7 7 6 6 7 6 6 5 4 4 4 3 3 3 3 2 2 3 3 4 5 5
19 15 14 14 15 17 16 13 15 17 19 20 21 20 17 17 16 14 17 16 17 16 10 10 10 10 11 12 15 15 16 16 16 17 18 18 18 21 22 19 19 16 17 18 16 19 18 15 15 14 15 16 16 16 15 14 16 17 17 17 17 17 17 14 13 11 10 12 15 15 15 13 11 9 7 7 6 6 7 7 6 4 3 3 3 3 3 2 2 2 2 2 4 4 4 5 6
16 19 15 11 13 16 17 16 16 17 17 18 20 20 20 19 14 14 18 16 14 15 13 13 13 14 14 13 15 16 17 16 17 19 18 17 18 21 22 20 19 17 16 16 15 16 16 15 15 15 15 16 17 16 16 15 15 17 17 17 17 17 16 14 13 10 10 12 13 14 13 12 10 9 8 7 6 5 6 6 4 3 3 3 3 2 3 3 2 3 3 3 4 4 5 6 6
9 18 19 12 12 16 18 19 17 16 16 18 18 18 21 21 15 12 17 18 17 16 16 17 16 16 17 15 16 16 17 18 18 19 18 19 19 19 20 20 19 16 14 16 15 14 15 15 15 16 16 16 17 16 16 15 15 17 17 17 16 15 15 15 13 10 10 11 11 11 11 10 9 9 8 6 6 6 6 5 3 3 3 4 4 3 4 4 4 4 4 4 5 5 5 5 6
6 13 17 15 14 15 16 17 19 17 14 17 17 16 19 20 17 14 13 13 18 22 20 20 20 19 18 17 16 16 18 18 18 19 21 22 20 19 20 20 19 16 14 16 14 14 15 15 15 15 16 17 17 16 17 17 17 17 17 17 15 14 15 16 13 10 10 11 11 11 11 10 9 9 9 7 7 6 6 6 5 4 4 4 4 4 4 4 4 4 5 6 5 5 4 4 6
8 10 12 14 15 15 17 16 18 18 14 16 14 13 18 19 19 19 17 13 14 18 19 18 20 21 21 18 16 16 18 18 18 21 22 20 19 19 18 19 18 16 14 15 14 15 16 16 16 16 16 18 18 18 18 18 18 17 17 16 15 14 15 15 13 11 12 12 12 12 10 10 9 9 9 9 8 7 8 7 6 5 4 4 4 4 4 3 3 4 5 5 4 4 4 4 5
9 11 10 11 12 14 19 18 17 18 16 16 13 11 15 18 22 24 22 21 17 16 16 17 17 18 20 19 17 16 17 19 19 20 20 19 18 17 17 18 17 16 15 15 16 17 18 18 17 16 17 19 19 19 18 17 18 18 17 17 16 15 14 16 14 12 14 12 11 12 10 10 10 9 10 10 9 9 9 8 6 5 5 4 4 4 3 3 3 3 3 4 4 4 4 5 5
10 10 10 10 9 10 18 21 19 17 15 19 16 12 13 12 19 25 25 26 24 20 20 20 20 19 19 19 18 17 17 18 18 18 18 17 17 16 18 20 18 17 16 17 18 20 22 21 17 17 17 17 17 18 18 18 19 19 18 18 17 15 15 16 14 13 15 13 11 12 11 10 10 10 10 10 10 9 9 7 6 5 5 4 4 3 3 2 2 2 3 3 3 4 4 5 5
11 10 10 11 10 9 14 21 22 19 15 20 18 11 11 12 12 17 23 26 26 23 21 22 22 21 21 19 18 16 15 15 16 17 17 17 17 16 18 20 18 18 17 18 20 24 24 20 18 19 18 17 17 18 18 18 21 21 21 21 18 17 16 14 14 14 15 14 13 13 12 11 11 11 11 11 10 9 8 6 6 5 4 4 3 3 2 2 1 2 3 3 3 3 5 6 6
11 12 11 12 13 10 10 15 21 22 17 19 20 11 8 11 12 14 19 22 24 23 22 22 22 22 22 20 17 15 13 14 16 18 17 16 17 17 17 18 19 19 19 20 23 25 22 20 21 21 20 20 18 18 18 17 20 22 21 21 19 18 16 14 14 16 16 15 14 13 12 12 11 11 11 11 11 10 8 7 6 6 5 3 2 2 2 1 1 1 2 3 3 3 4 6 6
10 12 12 12 16 13 10 12 17 22 19 17 19 15 12 10 11 15 18 20 22 22 23 23 22 21 21 20 16 14 13 14 17 18 18 17 17 17 16 17 19 20 20 23 27 25 21 22 23 22 21 19 17 17 17 16 17 19 19 19 18 17 16 14 15 16 16 15 15 14 13 12 12 12 11 11 12 11 9 7 6 5 4 4 3 2 2 1 1 1 2 2 3 3 4 5 6
13 13 11 11 14 15 13 11 14 20 20 19 18 17 19 18 12 13 16 19 21 21 22 22 22 21 20 18 15 13 13 14 15 16 17 16 15 17 17 17 18 21 21 24 28 25 24 25 24 23 21 18 16 15 16 16 17 18 18 18 16 16 15 14 15 16 16 15 15 14 12 12 12 12 11 11 12 10 8 8 6 5 5 4 3 3 2 1 0 1 1 2 3 3 4 5 6
15 15 13 12 11 13 15 11 14 19 19 19 19 17 19 22 19 15 14 16 19 21 22 20 20 20 18 17 14 13 13 12 12 14 17 16 15 16 18 17 18 21 23 26 27 26 27 26 24 24 21 16 15 14 15 16 17 17 18 17 16 16 15 15 16 16 15 14 14 13 12 11 11 11 12 11 11 10 8 8 6 5 5 4 4 3 3 1 0 1 1 2 3 3 5 5 7
14 15 14 14 11 11 15 13 13 16 15 16 19 18 18 20 20 20 19 16 15 17 20 21 21 20 18 17 15 14 14 11 11 14 16 16 15 16 18 18 19 22 25 27 28 27 27 24 21 21 19 15 14 13 14 15 15 16 17 18 17 16 17 17 18 17 15 14 14 13 12 11 11 11 12 11 10 10 8 7 6 5 5 5 4 3 2 1 1 1 1 2 2 3 5 6 7
13 13 12 13 12 11 13 15 14 14 13 13 16 19 19 19 18 19 22 19 16 17 18 19 22 21 19 17 16 15 14 12 13 14 15 15 17 18 17 18 20 23 27 28 28 28 24 20 17 16 16 15 12 12 13 14 15 15 17 18 15 15 17 18 19 18 16 15 15 14 13 12 11 12 12 11 10 9 8 6 6 5 5 5 4 2 1 1 1 1 1 2 3 4 5 7 7
11 10 11 11 11 10 10 14 15 13 9 10 14 16 16 18 19 18 19 19 19 21 21 20 20 21 20 18 17 16 15 15 16 16 15 16 18 19 19 18 19 21 23 25 26 24 19 16 15 13 12 12 13 14 14 14 14 15 16 16 15 15 17 18 18 18 16 16 16 15 14 13 12 11 11 11 10 9 7 6 6 6 6 5 3 2 2 1 1 0 1 2 3 5 5 7 10
11 9 10 10 11 12 9 11 15 12 9 10 12 12 12 14 17 17 18 20 20 22 25 23 22 21 20 19 17 17 18 17 18 19 19 17 18 20 20 19 19 19 18 20 21 19 16 15 15 15 14 14 17 19 18 15 14 16 16 16 16 16 17 19 18 17 16 16 16 15 14 13 12 11 11 10 9 8 8 7 7 6 6 5 3 2 2 1 0 0 1 2 2 4 4 6 11
13 13 11 10 12 14 9 9 14 12 11 12 11 9 10 13 16 15 15 19 20 20 22 23 24 22 20 19 18 17 18 18 19 21 22 20 19 20 20 18 18 18 17 18 17 15 15 15 14 17 20 22 24 23 21 17 16 17 16 16 18 17 18 19 18 18 18 17 16 16 14 12 11 11 10 9 9 8 8 8 7 7 6 5 4 3 2 2 1 1 1 2 3 4 4 5 8
12 14 14 12 12 15 11 9 12 9 10 13 12 9 8 12 17 15 13 15 17 16 17 20 22 23 21 21 20 18 18 18 18 20 23 23 20 19 19 19 19 17 17 17 15 16 16 14 16 21 21 23 22 19 19 18 17 17 16 16 17 17 18 20 20 19 18 17 16 15 13 11 11 11 10 9 9 9 8 8 7 7 6 5 4 4 3 2 1 1 2 2 2 4 3 3 4
10 13 14 12 11 14 14 11 10 7 7 11 15 11 7 9 15 17 16 15 17 17 15 18 21 22 23 22 21 19 18 18 17 18 21 24 23 20 19 20 19 16 16 17 18 20 19 17 20 21 19 21 21 17 17 18 16 16 17 18 18 19 20 20 19 18 18 17 15 15 13 11 12 11 10 9 9 9 9 8 8 7 6 5 4 4 3 3 2 2 3 2 2 2 2 2 2
8 13 15 12 11 14 15 13 10 8 6 8 14 13 8 7 10 14 18 17 17 18 16 17 21 23 24 23 22 20 19 18 18 19 21 23 24 22 20 19 17 15 16 19 22 23 20 18 20 19 19 23 23 19 19 19 17 17 20 21 20 21 21 20 18 17 17 15 14 14 12 12 13 11 10 10 9 9 9 9 8 7 6 5 4 4 3 3 2 2 3 2 1 1 2 2 1
8 14 17 13 11 11 12 10 9 9 8 7 12 13 10 8 6 8 15 18 17 18 18 17 20 24 25 24 22 20 19 19 19 21 21 22 23 22 20 18 16 15 18 22 24 23 20 18 19 21 23 24 24 20 19 20 21 22 22 19 20 22 22 20 18 16 15 15 14 13 11 12 14 12 10 10 9 8 9 8 8 7 6 5 3 2 2 2 3 2 2 1 1 1 3 3 3
7 13 16 13 11 9 8 8 8 8 9 9 13 15 10 8 8 8 10 15 16 15 15 17 20 24 25 23 22 20 19 19 19 20 20 21 23 21 19 17 16 17 20 23 25 23 20 21 23 25 26 25 25 21 19 20 23 22 20 18 21 24 23 21 19 15 14 15 14 13 12 13 13 12 10 9 9 8 8 8 7 7 6 4 3 1 0 2 3 2 1 1 2 3 5 6 6
9 13 14 12 10 8 7 7 7 7 9 11 15 17 12 8 9 10 9 11 14 13 13 15 19 23 24 22 22 22 20 19 19 19 18 19 20 19 17 17 17 19 21 22 25 24 22 24 24 23 24 24 25 22 20 21 22 19 17 18 21 23 22 20 19 17 16 15 14 14 15 13 11 11 10 9 9 9 8 7 6 6 5 3 2 1 1 1 1 1 2 3 4 6 7 7 7
10 12 12 10 9 7 6 7 7 8 9 11 15 16 14 11 8 8 9 12 14 13 14 16 18 22 25 24 23 23 21 20 20 19 19 19 19 18 18 18 19 21 21 23 27 25 22 24 23 21 22 22 21 21 22 24 22 18 18 19 21 22 21 18 17 17 16 16 15 16 16 13 12 13 12 10 8 8 8 6 5 5 3 2 2 2 2 3 4 4 5 6 7 8 8 8 8
11 12 12 11 9 7 8 9 9 9 8 7 12 14 11 10 8 6 6 11 15 14 13 17 19 21 23 24 23 22 22 21 20 19 20 21 21 20 20 20 21 22 22 25 28 24 21 24 24 22 22 21 19 20 22 24 22 20 20 22 21 21 20 18 17 16 16 17 17 16 15 14 14 16 14 10 8 8 8 6 5 4 2 2 2 3 4 5 6 6 8 8 8 8 9 9 8
14 13 13 12 10 9 10 10 9 9 7 5 9 11 9 8 9 10 8 7 11 14 14 17 21 23 23 23 24 23 21 20 20 20 20 21 22 22 21 20 21 23 25 27 27 23 22 24 24 22 20 19 19 19 20 22 21 20 21 22 22 20 19 20 19 16 16 18 18 18 17 15 15 16 15 11 9 9 8 5 4 2 2 3 4 5 6 6 7 8 9 9 9 9 9 8 7
13 13 12 11 9 8 8 9 8 9 8 8 9 8 8 6 4 8 12 9 9 13 14 13 16 21 22 23 24 22 21 20 20 20 21 21 22 21 20 19 22 24 25 26 25 22 22 22 21 21 19 18 20 20 20 20 20 23 23 23 23 21 20 22 20 16 15 16 17 18 18 15 14 15 15 12 10 9 7 5 2 2 3 4 5 7 7 8 9 10 10 9 9 9 8 8 7
11 11 11 11 9 6 4 2 2 5 7 8 8 6 4 3 3 4 9 12 12 13 13 12 11 14 17 19 21 21 20 21 20 20 21 21 20 20 19 20 23 25 25 25 23 21 23 21 18 18 18 20 21 21 19 16 19 25 25 24 24 22 23 24 20 16 15 16 16 18 18 15 12 13 14 12 11 9 7 5 2 2 5 6 7 8 8 10 11 10 9 9 8 9 8 7 7
9 10 12 11 8 6 4 1 3 2 6 6 8 8 5 2 3 7 10 12 14 13 12 13 13 13 14 15 18 19 20 21 21 21 21 21 21 20 20 19 21 23 24 24 22 21 22 21 18 17 19 22 21 20 18 15 19 24 23 22 23 22 23 23 19 17 17 18 19 19 18 15 14 13 12 11 10 9 6 4 2 2 6 8 9 9 10 11 11 10 9 9 9 9 8 7 7
9 9 11 9 4 4 5 5 4 5 7 5 7 9 9 6 4 8 12 12 14 15 14 14 14 15 15 15 17 18 19 21 21 22 21 21 21 21 20 19 19 21 23 22 21 22 21 21 20 18 21 23 22 20 17 16 21 24 23 22 21 21 23 21 18 17 18 20 23 22 19 17 15 12 11 10 9 6 5 4 3 3 7 9 10 10 11 12 11 10 9 9 9 9 7 7 8
11 8 9 7 5 5 6 5 6 8 7 5 7 9 9 8 6 7 11 13 14 16 17 16 15 15 16 17 17 18 19 20 20 20 20 20 21 21 21 20 19 20 21 20 21 22 22 22 20 19 22 22 21 20 17 19 23 24 25 24 22 22 22 19 17 18 19 22 23 21 20 17 15 12 11 10 7 4 4 3 3 6 9 9 10 11 11 12 11 10 10 9 10 9 8 8 9
12 9 9 8 6 6 7 5 4 7 7 6 7 7 6 8 8 7 9 12 14 16 15 15 16 17 18 17 16 18 19 20 20 20 20 20 21 21 21 22 21 21 21 21 21 22 23 21 19 22 23 22 22 20 18 21 24 24 24 24 22 22 20 18 18 19 21 23 21 20 20 17 15 13 11 8 5 4 3 4 6 8 9 10 11 10 10 12 11 10 10 10 10 10 9 10 10
11 10 10 9 7 5 7 6 5 5 6 6 6 6 5 6 8 9 10 10 11 14 14 13 14 18 19 16 15 18 19 19 20 20 20 20 20 21 22 21 21 21 21 21 21 23 23 20 20 22 22 22 22 20 20 23 22 21 23 24 22 22 21 20 21 20 21 22 21 22 20 16 15 13 9 7 6 5 3 5 8 10 10 10 11 10 11 12 11 10 11 11 11 10 10 11 13
11 9 9 10 8 7 7 7 7 5 4 4 5 5 3 3 3 7 10 9 9 12 14 13 12 14 14 14 15 18 19 20 21 20 20 20 21 22 23 21 22 22 23 23 22 22 21 20 20 22 23 23 21 21 22 23 20 19 23 23 21 22 22 22 22 21 20 21 22 22 19 16 15 11 8 7 7 5 4 6 9 11 11 10 11 12 12 12 11 11 11 12 12 12 12 13 15
Wind_Direction
319 327 337 345 349 336 326 323 280 209 270 252 207 193 114 69 51 73 64 67 59 29 11 7 349 203 262 350 52 271 293 6 21 17 359 17 315 320 195 194 181 181 185 186 184 182 187 180 173 174 172 170 166 169 175 178 177 175 170 166 166 166 167 165 162 159 157 155 153 150 144 139 135 130 125 126 132 133 131 132 136 136 131 131 138 149 159 159 153 150 143 132 119 114 113 111 108
302 313 331 337 344 326 310 312 283 239 249 239 200 171 101 140 154 63 48 38 29 18 8 27 72 147 249 339 312 244 212 72 48 63 236 315 325 292 182 191 184 181 183 187 184 180 186 183 177 176 175 173 169 171 177 180 181 178 174 170 169 170 170 167 164 162 159 157 154 150 143 142 135 128 126 124 129 130 134 138 138 130 118 115 118 128 136 138 136 134 132 126 122 120 117 114 111
288 302 324 326 318 288 290 273 261 258 244 245 198 131 123 177 100 57 37 26 24 18 17 45 87 65 276 225 271 270 149 85 61 75 64 6 360 192 180 185 185 182 184 186 185 182 185 184 180 177 178 177 172 174 178 182 183 182 178 174 173 173 173 168 165 164 161 159 155 151 146 144 136 131 130 128 132 135 137 133 128 117 106 102 104 114 120 125 126 126 127 126 125 121 120 116 115
279 287 304 309 281 260 267 246 257 268 243 251 217 137 158 167 79 45 29 15 15 18 20 10 69 41 321 271 347 280 318 42 57 71 70 59 213 209 182 184 186 183 185 186 186 185 186 185 181 179 180 181 176 175 179 183 184 184 181 177 175 174 174 169 167 166 163 161 155 152 149 145 137 135 135 134 136 139 132 121 118 110 102 100 104 112 116 120 121 125 127 127 126 123 121 119 119
274 281 287 289 280 281 274 262 262 256 249 258 238 135 140 124 59 21 16 358 4 14 15 358 10 32 341 30 356 316 358 348 52 61 62 57 228 207 185 186 188 184 185 186 188 187 186 185 181 182 182 184 182 178 181 185 185 186 184 180 178 176 175 171 170 169 166 162 157 155 152 147 141 139 139 135 134 134 128 121 117 110 105 104 108 113 116 120 122 126 128 128 128 125 124 122 121
274 279 273 262 274 303 270 255 248 244 249 258 261 138 132 105 50 354 347 340 354 3 5 0 1 336 230 92 352 17 5 293 44 48 49 2 206 196 186 185 189 188 186 187 190 187 185 185 182 183 184 186 186 182 184 187 187 187 187 182 180 178 176 174 173 171 170 167 160 159 156 151 146 143 141 133 131 132 129 126 120 114 111 111 113 116 118 121 124 127 129 130 130 128 125 123 123
245 252 241 239 240 241 253 251 249 251 238 238 252 254 262 62 55 326 322 327 338 15 1 359 358 316 255 53 338 81 335 307 39 305 313 322 230 196 187 182 191 191 189 189 190 186 184 185 183 185 186 188 190 187 187 190 190 189 189 185 183 181 179 177 176 174 174 172 164 163 161 156 151 145 142 136 133 134 134 130 124 120 118 118 119 120 122 123 126 129 131 132 131 129 126 125 123
220 245 242 250 243 211 245 252 248 254 244 224 244 267 292 341 353 297 306 316 321 340 327 346 352 314 360 360 314 38 321 311 302 286 301 302 239 199 189 186 195 194 192 190 190 188 183 184 185 186 187 190 191 190 189 193 193 192 191 187 187 184 182 180 178 178 178 176 169 168 165 159 154 147 145 140 136 137 138 136 130 127 124 125 125 125 126 127 129 131 133 134 133 130 127 126 123
215 234 235 248 255 238 241 248 247 249 250 238 240 254 263 280 287 281 287 285 295 308 309 345 340 313 337 321 310 66 319 314 313 302 306 294 230 202 193 190 195 195 193 190 192 191 183 185 187 187 189 191 192 193 192 194 196 195 194 191 190 188 186 184 182 182 181 180 174 172 170 164 156 150 149 144 141 140 142 145 141 134 132 132 131 132 132 134 134 134 135 136 135 132 129 126 124
213 223 238 244 247 247 242 243 245 244 247 248 250 240 230 255 260 265 273 272 283 292 303 334 312 301 314 303 308 106 308 310 310 308 306 296 238 205 193 189 192 196 194 191 194 192 184 185 189 189 191 192 193 194 194 196 197 198 197 195 194 192 191 188 185 184 183 183 178 177 173 168 162 156 153 151 148 147 148 152 152 144 140 140 139 141 142 143 142 140 140 139 139 136 131 127 126
221 217 234 248 241 244 246 245 244 242 241 245 251 236 221 248 254 258 263 268 271 275 285 303 295 304 297 290 294 249 296 305 302 302 292 275 228 202 193 188 189 195 196 194 195 192 186 187 190 192 193 194 195 196 196 198 198 200 200 198 197 196 196 193 189 186 185 185 181 181 177 172 168 162 159 156 155 153 154 156 160 157 150 148 148 150 152 154 155 153 150 146 145 141 134 126 124
230 216 213 239 241 244 247 249 248 246 238 233 241 234 223 235 246 251 257 265 261 266 262 249 300 322 291 283 131 261 294 303 289 284 279 252 209 195 191 190 191 195 197 197 197 193 188 188 190 193 196 196 197 197 198 200 200 201 201 201 199 198 199 195 192 187 185 185 184 184 181 178 172 166 163 160 159 159 160 161 165 165 161 159 157 158 160 164 167 168 166 162 157 154 151 140 133
227 230 221 237 242 247 247 248 249 248 243 232 232 233 221 223 237 246 257 266 263 268 253 231 290 291 281 282 219 266 285 290 283 278 270 234 198 187 186 191 192 193 196 197 199 196 189 189 192 194 197 198 199 200 200 202 201 203 203 202 201 200 200 196 192 188 186 188 188 189 186 181 174 168 165 162 162 163 165 166 168 170 171 171 168 167 169 171 177 182 183 181 178 177 178 180 197
223 236 236 244 242 246 247 246 246 246 247 236 230 219 209 224 239 245 255 262 261 264 249 230 280 279 272 263 206 146 220 281 290 278 244 199 183 176 181 188 189 190 194 195 198 199 190 189 193 195 198 198 200 201 201 204 204 205 205 203 201 200 200 196 191 188 188 192 192 191 188 180 174 171 168 166 165 166 168 169 172 175 177 178 178 178 178 181 186 192 198 200 202 200 204 217 238
220 232 237 247 245 243 241 240 245 249 247 240 236 208 206 234 241 244 249 257 265 259 258 257 250 267 277 277 83 124 197 294 290 267 217 183 174 168 178 186 188 189 192 194 194 196 193 189 192 196 199 198 200 201 201 203 206 207 206 203 201 200 199 195 190 189 191 196 197 191 188 181 175 175 172 169 168 168 171 171 175 180 181 183 185 186 187 189 193 200 209 214 219 224 225 236 249
215 227 232 241 243 240 237 234 241 248 245 245 243 210 213 239 239 246 247 251 266 235 245 256 226 254 285 307 14 164 259 286 276 254 203 180 168 168 179 185 187 188 191 194 191 191 191 187 191 194 193 195 195 198 197 196 202 206 206 201 197 198 198 195 191 191 195 199 199 192 187 183 178 176 172 170 170 170 172 172 175 181 185 187 189 191 194 195 199 205 214 222 229 237 241 250 256
206 220 230 237 239 236 236 232 235 244 245 245 239 212 220 244 239 244 241 242 259 248 242 249 231 248 273 278 261 257 270 276 270 243 193 178 167 172 182 186 186 188 191 193 190 187 187 187 190 188 184 189 188 190 191 190 198 200 198 197 196 198 198 195 194 195 197 202 199 190 187 185 180 175 171 169 170 171 173 173 172 176 183 188 193 194 198 201 205 209 215 223 231 241 248 257 265
195 213 230 235 237 235 236 237 238 241 244 246 239 220 223 243 242 237 232 236 248 249 238 239 235 233 249 257 258 262 265 261 252 221 192 180 175 177 180 187 187 188 191 190 190 187 188 189 186 184 182 186 184 186 188 190 198 193 185 191 193 196 201 195 193 196 195 201 198 191 191 187 180 174 173 169 170 173 173 174 171 172 176 185 192 195 200 203 205 209 216 224 230 241 252 264 278
202 217 229 233 238 239 237 241 238 233 240 249 249 242 233 239 243 236 233 241 243 239 231 231 233 225 234 250 253 253 258 250 223 208 200 189 183 182 180 186 188 190 191 190 192 189 190 191 183 181 184 184 183 186 185 189 195 186 181 191 192 197 205 197 193 198 189 192 193 193 196 188 180 176 176 173 172 173 171 172 171 171 173 180 187 191 198 203 205 209 215 224 233 247 267 275 279
211 220 231 235 237 240 240 239 232 229 240 250 255 255 246 237 238 236 234 247 250 242 236 230 232 228 213 230 241 241 251 237 200 199 201 194 189 186 184 187 189 191 192 191 194 191 189 192 186 181 185 184 182 186 184 187 188 181 187 195 195 200 206 203 202 202 190 187 189 195 199 190 181 177 178 175 170 170 167 169 167 168 171 177 185 189 196 202 207 213 221 231 242 256 273 272 266
211 219 235 238 235 240 237 232 226 228 238 246 256 258 251 242 232 232 233 245 252 246 245 238 241 241 203 208 234 238 246 232 196 194 195 193 192 191 190 190 191 193 193 192 196 197 192 191 187 181 185 183 182 187 183 189 186 178 189 197 197 203 206 209 207 204 199 190 190 198 200 191 181 179 181 176 169 166 165 162 159 163 166 175 185 187 194 201 203 211 230 242 244 244 247 254 258
217 224 235 239 238 242 226 217 220 224 231 242 252 254 252 243 226 226 232 240 250 248 251 245 244 250 208 202 234 241 238 229 204 199 198 195 195 194 193 190 191 192 193 193 196 201 197 189 183 182 185 182 182 186 182 191 190 180 189 197 198 202 206 211 206 206 203 189 194 200 199 192 183 185 187 177 168 165 164 158 157 160 161 168 171 177 192 194 191 200 217 230 231 238 247 262 270
224 227 229 236 236 232 216 211 217 218 226 235 243 251 251 237 223 226 231 235 245 251 256 247 232 233 212 202 229 241 237 234 223 213 209 202 196 195 192 188 189 189 191 191 192 200 198 184 182 182 182 184 184 184 184 190 191 185 192 199 199 201 206 211 207 206 197 188 197 199 195 191 186 190 192 180 167 161 160 154 157 158 151 158 161 162 179 173 171 195 207 221 239 248 259 276 286
225 232 224 227 224 220 220 219 215 212 224 232 238 248 241 226 229 231 230 232 238 243 239 223 209 208 211 204 219 242 244 237 233 224 216 207 199 196 193 190 190 189 191 191 189 197 197 183 182 182 180 186 187 185 186 189 190 188 194 200 202 206 208 210 208 204 192 190 198 195 191 186 182 186 185 180 169 166 174 170 171 164 151 164 171 158 163 167 168 195 213 227 248 261 272 283 286
221 232 229 221 215 216 221 219 217 214 221 230 236 242 231 228 242 239 231 230 230 228 213 210 214 211 215 211 216 240 245 232 228 222 211 204 200 197 196 194 192 191 191 190 189 194 195 185 181 181 181 185 188 187 186 190 190 188 196 202 204 209 210 210 206 200 190 192 197 193 188 180 174 178 179 182 178 177 188 181 174 171 169 196 207 186 183 185 178 214 235 247 263 277 284 289 294
218 224 225 214 211 215 217 216 217 217 219 224 232 238 236 234 240 240 233 230 223 216 212 213 216 218 222 220 218 236 247 238 230 219 206 201 199 197 198 196 194 194 190 187 188 189 190 187 180 180 183 185 188 188 185 193 193 190 198 203 206 211 211 212 205 193 189 191 194 190 186 179 170 176 181 180 178 181 188 179 171 187 214 230 235 234 225 208 203 230 247 252 269 284 289 295 305
216 218 220 215 214 216 218 219 216 217 219 222 231 239 240 234 230 235 232 227 220 212 214 216 218 223 226 227 220 228 244 243 233 217 204 201 199 199 198 196 196 194 187 186 187 184 187 188 180 180 185 185 188 188 186 194 195 192 197 200 206 210 211 215 205 190 190 189 189 185 183 179 171 181 186 180 181 183 183 179 188 208 225 238 230 239 248 238 228 241 256 262 270 280 291 303 311
207 208 216 217 221 221 216 219 219 219 221 220 231 246 243 235 230 231 227 217 214 217 223 222 224 228 228 229 218 222 237 234 222 209 202 201 199 200 199 195 194 190 185 186 185 182 185 185 181 183 187 188 188 187 188 193 194 196 198 197 202 208 213 216 202 190 191 188 190 185 182 181 177 184 187 190 193 184 183 188 200 209 219 234 233 243 251 249 249 260 272 277 284 289 299 314 319
208 200 215 215 219 225 214 213 215 217 224 216 224 248 241 232 230 227 220 207 199 209 218 218 223 227 227 227 216 217 228 224 215 206 203 201 199 200 198 193 191 188 185 185 184 182 184 190 192 193 197 198 195 189 189 191 191 197 198 195 200 205 214 214 199 192 191 190 193 183 183 192 186 186 188 194 198 189 189 193 200 208 221 234 243 256 255 257 260 275 289 291 293 302 320 330 338
207 204 223 215 212 224 214 211 212 213 220 208 205 238 237 227 227 225 218 212 206 205 211 213 217 219 221 221 215 214 217 221 217 205 201 200 200 199 195 192 188 183 183 185 187 185 194 206 208 210 212 211 206 194 189 188 188 196 197 194 198 202 210 208 195 193 191 190 192 184 188 197 190 195 199 197 198 196 193 192 200 211 224 236 249 259 257 258 260 274 292 299 308 327 335 332 343
202 202 220 221 219 222 205 204 207 209 210 199 202 238 242 230 226 220 214 213 215 218 220 221 222 220 220 218 216 215 211 216 213 201 200 199 198 196 193 193 186 179 182 186 190 196 207 215 213 215 213 206 200 191 188 188 185 193 198 194 195 199 207 203 191 191 188 185 190 188 191 196 193 201 205 200 201 201 197 195 205 218 224 228 240 247 245 245 254 287 298 308 321 341 337 331 340
201 203 213 217 224 223 195 196 203 207 203 196 206 239 241 240 236 212 205 209 213 218 220 221 223 222 222 220 218 217 208 205 202 197 200 196 193 192 192 192 183 180 185 186 195 208 214 214 212 213 209 202 199 193 192 190 186 193 198 193 191 197 200 196 191 186 179 180 189 191 193 197 200 203 203 203 201 200 201 202 210 220 218 214 231 233 222 227 248 306 317 322 323 337 332 328 337
202 209 216 208 211 218 190 189 201 206 206 200 209 234 239 232 232 207 200 207 211 216 218 218 219 218 221 221 217 215 205 196 197 197 196 193 191 190 189 188 183 186 190 192 205 215 213 211 212 214 213 208 201 193 192 192 191 194 196 190 187 196 195 189 189 180 175 183 189 192 196 200 203 201 202 204 199 197 201 207 213 216 212 210 222 206 184 213 272 308 319 324 317 324 328 329 334
197 205 217 210 207 213 196 184 191 201 210 210 210 225 241 233 221 211 204 206 211 215 219 218 217 216 218 219 216 211 204 198 200 199 193 189 187 186 187 186 184 189 193 201 212 216 212 213 214 214 215 208 194 189 192 197 198 195 194 189 186 194 196 188 185 177 179 189 189 192 197 200 202 199 203 206 199 197 198 206 213 209 209 214 207 178 162 206 267 306 316 322 322 330 333 331 332
197 195 208 212 206 209 206 187 178 191 205 215 212 217 232 234 225 214 206 210 217 216 217 218 216 216 215 216 214 208 208 206 201 195 188 186 184 183 184 182 183 191 196 204 212 213 211 216 215 212 214 205 191 187 189 197 203 199 195 190 187 193 194 188 185 181 184 189 190 193 195 198 200 199 203 204 198 195 197 206 205 200 207 206 191 170 158 181 334 355 331 328 337 338 332 332 327
206 196 199 206 198 203 208 196 180 189 201 212 216 216 224 230 228 222 210 209 219 219 215 215 215 215 214 215 212 209 213 209 195 187 184 183 184 184 185 183 184 192 199 205 210 210 211 215 213 210 210 199 189 186 187 196 204 200 191 188 191 191 189 189 188 186 187 190 192 193 195 197 199 201 203 201 197 193 197 202 194 194 202 193 181 172 166 166 36 4 342 334 344 336 328 327 319
216 197 196 200 199 202 205 205 192 192 208 214 215 222 225 227 230 227 220 209 208 216 215 215 215 214 214 214 211 210 213 204 184 179 182 182 184 184 185 187 187 194 204 208 209 211 211 210 207 208 208 197 188 186 188 193 199 197 190 190 192 188 187 191 190 187 188 192 193 193 196 198 199 203 202 198 199 196 196 194 186 191 192 181 176 175 179 165 93 13 342 334 344 331 318 308 308
211 195 197 200 206 210 197 204 202 193 214 221 212 223 228 227 230 226 224 219 209 209 211 214 216 215 214 215 211 209 206 193 178 172 177 184 188 187 186 189 192 200 207 208 210 211 208 204 199 202 206 197 186 187 190 193 195 194 192 191 188 185 189 193 191 188 188 193 193 192 195 197 198 201 201 198 199 198 195 189 184 188 180 169 167 166 161 128 88 27 353 336 330 329 320 307 321
203 193 203 205 204 208 193 198 206 198 212 226 213 221 229 228 232 228 222 223 218 214 214 215 217 215 214 214 212 207 199 186 176 175 180 189 194 191 190 193 197 203 207 206 208 207 201 196 190 189 198 194 191 194 194 194 193 191 192 190 186 190 195 196 195 190 189 192 192 191 191 192 194 196 199 201 200 196 191 188 186 179 168 161 162 166 157 138 109 13 334 338 330 339 339 315 327
211 203 204 207 196 199 196 192 203 205 208 228 225 225 233 228 231 231 223 223 222 218 218 218 219 218 214 213 212 207 200 189 181 182 186 192 194 194 196 198 201 202 202 203 203 199 193 187 182 190 205 210 209 206 201 195 191 190 192 192 192 196 198 196 195 191 188 191 190 189 190 190 191 193 197 199 196 192 187 186 183 173 165 167 174 179 172 177 183 222 321 343 327 336 347 318 322
215 216 211 210 197 198 204 183 190 201 210 223 229 230 234 226 226 227 217 218 221 217 215 215 217 219 217 216 215 210 204 197 189 186 190 196 195 197 201 201 204 203 199 199 195 187 182 175 188 209 216 218 216 210 205 199 194 194 192 191 193 198 198 194 192 190 189 192 190 189 191 191 192 192 192 191 187 185 185 181 177 172 170 171 174 179 187 205 230 260 307 333 315 312 339 335 325
209 213 215 216 199 195 201 178 174 194 209 207 213 230 231 218 224 224 207 206 212 209 207 209 212 214 216 217 215 212 206 202 196 189 195 203 199 199 202 203 206 204 200 198 184 175 177 184 212 221 215 214 213 205 200 199 198 196 188 182 187 195 199 195 192 193 194 193 190 189 192 191 193 194 189 185 182 180 180 176 171 170 171 172 174 184 200 205 221 277 295 321 326 309 337 10 334
205 197 205 214 197 190 198 193 184 204 217 193 198 224 240 211 216 219 209 202 204 202 202 207 209 209 212 213 211 209 204 199 196 191 196 203 203 202 203 207 208 201 201 196 181 183 196 207 215 216 214 213 211 203 198 200 195 188 186 187 192 199 201 197 194 197 198 194 190 190 191 192 195 195 187 183 182 176 173 171 170 169 171 175 178 186 204 217 236 283 297 312 348 335 3 38 350
203 179 187 199 192 192 199 204 207 221 228 191 192 215 243 227 211 209 206 203 202 200 199 204 206 207 209 209 208 205 202 198 194 194 197 201 205 205 204 209 207 199 202 196 191 200 211 212 208 211 216 216 215 209 200 202 198 196 202 201 200 201 199 197 197 198 198 194 194 193 191 198 197 190 189 187 178 173 173 172 170 167 174 181 180 186 200 224 254 291 307 325 13 21 62 78 66
204 171 181 192 193 196 198 206 217 221 225 213 197 205 232 234 205 190 196 202 205 199 196 200 202 205 206 206 206 204 203 201 198 200 199 198 205 206 202 207 203 200 205 201 203 210 208 208 209 209 213 215 217 209 196 204 211 212 211 200 194 197 195 197 200 201 199 198 202 199 196 205 197 183 188 186 172 171 171 168 166 166 177 178 160 165 201 259 282 289 314 7 66 61 61 78 86
184 164 176 185 193 198 201 213 217 213 224 228 207 198 214 233 211 190 190 203 208 197 191 198 200 202 204 204 204 204 203 202 201 203 199 197 206 204 198 201 199 203 209 204 208 212 204 204 209 208 208 211 213 206 195 206 217 216 210 196 190 192 193 198 202 202 204 205 207 203 203 210 199 184 184 175 165 169 167 166 171 171 181 178 149 130 206 285 285 291 326 59 73 72 68 70 78
157 164 176 175 187 196 203 222 223 218 225 227 217 204 207 229 221 204 197 201 206 198 191 195 197 200 203 202 202 203 202 201 201 201 195 195 203 200 194 197 199 206 208 204 211 216 204 202 208 209 208 207 209 206 199 205 214 210 203 198 192 191 192 194 197 201 209 213 210 207 210 209 193 181 182 177 172 173 174 179 178 175 182 177 153 132 101 92 108 85 93 97 82 76 78 77 78
167 177 180 167 179 191 196 208 215 227 228 217 215 210 209 223 224 207 197 192 198 200 196 191 191 197 199 199 202 203 202 201 200 197 191 189 194 195 194 197 201 206 204 204 216 219 206 205 212 211 208 206 202 200 200 205 209 200 196 199 195 197 200 194 196 205 212 218 216 210 206 197 185 182 181 183 184 182 186 188 181 177 173 153 129 121 112 99 103 105 97 93 87 83 82 77 71
185 187 182 174 175 178 195 202 203 219 228 209 204 203 210 227 231 224 201 189 194 199 199 194 191 192 193 195 199 200 200 201 197 193 189 187 191 195 195 196 202 205 202 208 220 220 208 210 213 208 208 205 197 199 202 205 206 200 200 205 202 201 202 197 201 209 212 219 217 206 198 192 191 186 176 177 185 185 189 190 182 170 150 149 141 121 119 112 110 108 97 91 88 84 77 71 65
192 188 183 183 177 177 195 199 200 212 209 190 195 200 216 234 230 225 218 199 195 197 201 199 194 193 190 191 195 197 197 196 193 191 188 188 194 196 194 194 200 204 205 214 223 219 209 209 210 209 207 200 197 202 200 196 199 202 205 209 206 203 197 195 201 207 214 221 213 202 201 202 199 188 173 174 184 185 189 192 179 150 133 153 141 129 127 120 112 104 98 95 89 83 76 69 63
194 192 190 196 187 184 197 195 198 203 189 176 180 196 218 219 204 206 208 206 200 200 202 199 194 194 192 191 193 193 192 191 191 191 188 190 195 193 190 194 201 204 206 214 221 216 208 207 206 207 202 192 191 194 193 192 194 203 210 209 206 203 198 196 200 203 213 217 206 203 207 204 199 186 169 170 182 183 187 193 180 135 139 142 132 133 131 118 112 106 102 99 91 84 77 69 63
191 194 198 205 201 189 188 201 210 195 182 177 182 200 215 185 116 149 195 205 200 195 196 193 188 186 184 185 187 187 189 190 189 190 190 191 191 188 187 195 204 204 202 209 213 208 207 204 200 199 192 185 186 192 198 194 188 196 204 205 201 201 201 200 200 201 206 208 204 207 207 195 185 172 160 165 177 178 182 191 189 131 136 137 132 133 128 117 114 111 107 103 93 85 79 72 69
180 197 200 199 212 211 187 117 49 155 194 185 186 207 216 209 189 173 182 198 198 191 190 194 194 186 180 180 182 185 188 188 188 190 191 191 189 187 187 196 203 200 201 206 203 200 202 202 199 192 180 182 191 200 202 187 178 186 191 193 193 193 197 198 198 203 207 207 206 205 197 180 166 159 158 165 169 171 183 198 214 146 137 137 133 132 128 120 118 115 111 104 95 89 84 80 77
181 192 192 178 205 242 206 184 153 181 209 190 180 204 211 216 205 171 177 193 196 194 195 196 195 192 192 191 190 190 187 186 188 190 191 190 188 185 187 196 200 198 200 200 196 196 198 203 205 187 174 185 197 200 195 178 176 180 181 184 185 186 192 193 193 203 209 209 205 197 185 171 158 156 163 164 161 175 194 200 212 153 138 137 134 133 128 121 120 118 113 106 99 94 88 86 84
204 194 186 177 189 201 196 196 183 190 210 209 198 207 210 210 198 168 180 193 194 195 198 199 198 194 196 197 194 187 181 180 183 185 186 186 185 184 188 194 196 195 195 193 192 193 195 206 206 178 172 189 195 190 184 176 177 179 179 181 182 184 189 189 193 200 207 209 202 188 177 168 160 162 165 159 160 187 188 176 174 145 137 138 135 133 128 123 123 120 116 111 103 97 92 92 91
208 203 194 200 211 199 194 204 199 192 203 212 206 205 208 213 210 192 185 188 193 196 197 200 201 198 199 198 187 177 174 175 177 180 182 182 182 184 187 191 192 190 187 188 191 190 193 202 191 171 177 189 188 183 178 175 176 177 180 182 183 186 190 195 199 201 206 207 193 177 170 165 164 166 162 153 160 187 178 148 147 141 140 139 136 133 129 127 129 127 122 115 105 100 98 97 96
198 201 191 194 203 203 199 202 216 213 204 203 208 216 211 197 203 212 209 200 193 192 195 200 203 203 201 196 180 170 170 171 174 177 178 180 180 182 186 189 186 183 183 186 189 190 193 191 176 170 179 187 185 179 174 172 169 173 183 184 185 188 191 198 202 202 206 201 181 168 165 163 164 163 159 156 165 185 180 143 143 144 143 139 135 134 130 129 132 129 122 114 106 106 105 102 99
194 200 189 190 191 192 192 189 205 227 223 205 210 224 205 135 163 211 214 211 197 191 197 201 198 193 187 177 170 166 165 168 172 175 176 177 178 181 183 182 179 181 183 185 189 192 189 179 168 168 173 178 177 169 167 167 163 176 189 188 190 194 193 196 200 199 197 188 172 163 163 166 164 159 159 164 170 185 171 146 146 146 143 139 136 135 131 130 131 126 121 115 111 111 109 104 102